TimeMST,TemperatureF,Dew PointF,Humidity,Sea Level PressureIn,VisibilityMPH,Wind Direction,Wind SpeedMPH,Gust SpeedMPH,PrecipitationIn,Events,Conditions,WindDirDegrees,DateUTC
12:53 AM,36.0,26.1,67,29.88,10.0,SE,5.8,-,N/A,,Clear,130,2013-03-03 07:53:00
1:53 AM,41.0,26.1,55,29.80,10.0,WSW,15.0,-,N/A,,Clear,240,2013-03-03 08:53:00
2:53 AM,39.0,25.0,57,29.78,10.0,Calm,Calm,-,N/A,,Clear,0,2013-03-03 09:53:00
4:53 AM,45.0,24.1,44,29.74,10.0,NW,6.9,-,N/A,,Clear,310,2013-03-03 11:53:00
5:53 AM,46.0,24.1,42,29.74,10.0,West,21.9,29.9,N/A,,Overcast,280,2013-03-03 12:53:00
6:53 AM,43.0,25.0,49,29.76,10.0,West,16.1,-,N/A,,Overcast,270,2013-03-03 13:53:00
7:53 AM,45.0,26.1,48,29.76,10.0,West,16.1,-,N/A,,Overcast,270,2013-03-03 14:53:00
8:53 AM,48.0,26.1,42,29.75,10.0,West,12.7,-,N/A,,Clear,280,2013-03-03 15:53:00
9:53 AM,52.0,26.1,37,29.71,10.0,West,23.0,33.4,N/A,,Clear,270,2013-03-03 16:53:00
10:53 AM,54.0,27.0,35,29.68,10.0,West,23.0,32.2,N/A,,Clear,270,2013-03-03 17:53:00
11:53 AM,57.0,28.9,34,29.63,10.0,West,29.9,36.8,N/A,,Clear,260,2013-03-03 18:53:00
12:53 PM,57.0,28.0,33,29.59,10.0,West,29.9,38.0,N/A,,Clear,270,2013-03-03 19:53:00
1:53 PM,55.9,28.9,36,29.55,10.0,West,28.8,41.4,N/A,,Clear,270,2013-03-03 20:53:00
2:53 PM,55.0,28.0,35,29.55,10.0,West,29.9,38.0,N/A,,Clear,270,2013-03-03 21:53:00
3:53 PM,51.1,28.9,43,29.56,10.0,West,21.9,35.7,N/A,,Clear,260,2013-03-03 22:53:00
4:53 PM,48.9,28.9,46,29.55,10.0,West,25.3,38.0,N/A,,Clear,260,2013-03-03 23:53:00
5:53 PM,46.9,28.9,50,29.55,10.0,West,24.2,34.5,N/A,,Clear,260,2013-03-04 00:53:00
6:53 PM,46.0,28.9,51,29.56,10.0,West,21.9,31.1,N/A,,Clear,260,2013-03-04 01:53:00
7:53 PM,46.0,28.0,50,29.55,10.0,West,27.6,36.8,N/A,,Clear,260,2013-03-04 02:53:00
8:53 PM,33.1,26.1,75,29.65,10.0,North,31.1,41.4,N/A,,Clear,10,2013-03-04 03:53:00
9:00 PM,32.0,24.8,75,29.67,10.0,North,32.2,41.4,N/A,,Clear,360,2013-03-04 04:00:00
9:53 PM,30.0,23.0,75,29.73,10.0,North,24.2,32.2,N/A,,Partly Cloudy,350,2013-03-04 04:53:00
10:53 PM,28.9,19.0,67,29.77,10.0,North,20.7,35.7,N/A,,Overcast,350,2013-03-04 05:53:00
11:53 PM,28.0,19.0,69,29.80,10.0,NNW,15.0,27.6,N/A,,Overcast,330,2013-03-04 06:53:00